This is the latest recevied weather packets stored in our database for station/object JR5YHL-13. If no packets are shown the sender has not sent any weather packets the latest 10 day(s).
| Time | Temp. | Humidity | Pressure | Rain* | Wind** | Luminosity | Snow |
|---|---|---|---|---|---|---|---|
| 1777583400 | 16.11° C | 99% | 1002.7 hPa | 0.25 mm | - | - | - |
| 1777582802 | 16.11° C | 99% | 1002.8 hPa | 0.25 mm | - | - | - |
| 1777582205 | 16.11° C | 99% | 1002.8 hPa | 0.25 mm | - | - | - |
| 1777581607 | 16.11° C | 99% | 1002.6 hPa | 0.25 mm | - | - | - |
| 1777581010 | 16.11° C | 99% | 1002.5 hPa | 0.25 mm | - | - | - |
| 1777580412 | 16.11° C | 99% | 1002.6 hPa | 0.25 mm | - | - | - |
| 1777579814 | 16.11° C | 99% | 1002.8 hPa | 0 mm | - | - | - |
| 1777579217 | 16.11° C | 99% | 1002.5 hPa | 0 mm | - | - | - |
| 1777578619 | 16.11° C | 99% | 1002.3 hPa | 0 mm | - | - | - |
| 1777578022 | 16.11° C | 99% | 1002.2 hPa | 0 mm | - | - | - |
| 1777577424 | 15.56° C | 99% | 1002 hPa | 0 mm | - | - | - |
| 1777576827 | 15.56° C | 99% | 1002.5 hPa | 0 mm | - | - | - |
| 1777576229 | 15.56° C | 99% | 1002.4 hPa | 0 mm | - | - | - |
| 1777575632 | 15.56° C | 99% | 1002.4 hPa | 0 mm | - | - | - |
| 1777575034 | 15.56° C | 99% | 1002.7 hPa | 0.25 mm | - | - | - |
| 1777574437 | 15.56° C | 99% | 1002.8 hPa | 0.51 mm | - | - | - |
| 1777573839 | 15.56° C | 99% | 1002.8 hPa | 0.51 mm | - | - | - |
| 1777573241 | 15.56° C | 99% | 1002.9 hPa | 0.51 mm | - | - | - |
| 1777572644 | 15.56° C | 99% | 1002.9 hPa | 0.76 mm | - | - | - |
| 1777572046 | 15.56° C | 99% | 1003.1 hPa | 0.76 mm | - | - | - |
| 1777571449 | 15.56° C | 99% | 1003.2 hPa | 0.76 mm | - | - | - |
| 1777570851 | 15.56° C | 99% | 1003.6 hPa | 0.76 mm | - | - | - |
| 1777570253 | 15.56° C | 99% | 1003.7 hPa | 1.02 mm | - | - | - |
| 1777569656 | 15.56° C | 99% | 1004 hPa | 2.54 mm | - | - | - |
| 1777569058 | 15.56° C | 99% | 1004.2 hPa | 5.59 mm | - | - | - |
* Rain latest hour (hover to see other rain measurements)
** Current wind speed in m/s (hover to see current wind gust speed)